{"data":{"norad_id":35873,"intl_designator":"2009-050A","name":"NIMIQ 5","alt_names":[],"object_type":"PAYLOAD","status":"ACTIVE","operator":null,"country":"CA","launch_date":"2009-09-17","launch_site_code":"TYMSC","launch_vehicle":null,"mission":null,"orbit_class":"UNKNOWN","rcs_meters":94.7185,"size_class":null,"mass_kg":null,"dimensions":null,"purposes":["comms"],"wikipedia_slug":null,"has_3d_model":false,"image_url":null,"decayed_at":null,"tle_current":{"epoch":"2026-05-25T00:59:55.604256Z","epoch_age_seconds":78342,"freshness":"FRESH","line1":"1 35873U 09050A   26145.04161579 -.00000259  00000+0  00000+0 0  9996","line2":"2 35873   0.0497  96.9324 0002945 328.6096 119.3746  1.00271735 61111","mean_motion":1.00271735,"eccentricity":0.0002945,"inclination_deg":0.0497,"raan_deg":96.9324,"arg_perigee_deg":328.6096,"mean_anomaly_deg":119.3746,"bstar":0,"rev_number":6111,"period_min":1436.0976201319,"perigee_km":35774.191460321,"apogee_km":35799.026495702,"semimajor_km":42164.745978012,"source":"CELESTRAK","updated_at":"2026-05-25T13:38:13.866244Z"}}}